This is the latest recevied weather packets stored in our database for station/object KC8SWY-15. If no packets are shown the sender has not sent any weather packets the latest 10 day(s).
| Time | Temp. | Humidity | Pressure | Rain* | Wind** | Luminosity | Snow |
|---|---|---|---|---|---|---|---|
| 1777657487 | 7.22° C | 60% | 1016.4 hPa | 0 mm | - | - | - |
| 1777657187 | 7.22° C | 60% | 1016.2 hPa | 0 mm | - | - | - |
| 1777656887 | 7.22° C | 59% | 1016.2 hPa | 0 mm | - | - | - |
| 1777656587 | 7.78° C | 58% | 1016.3 hPa | 0 mm | - | - | - |
| 1777656287 | 7.78° C | 57% | 1016.2 hPa | 0 mm | - | - | - |
| 1777655987 | 7.78° C | 56% | 1016.1 hPa | 0 mm | - | - | - |
| 1777655687 | 7.78° C | 59% | 1016.2 hPa | 0.25 mm | - | - | - |
| 1777655387 | 7.78° C | 56% | 1016.2 hPa | 0.25 mm | - | - | - |
| 1777655088 | 8.33° C | 56% | 1016.1 hPa | 0.25 mm | - | - | - |
| 1777654787 | 8.33° C | 57% | 1016.2 hPa | 0.25 mm | - | - | - |
| 1777654488 | 8.33° C | 56% | 1016.2 hPa | 0.25 mm | - | - | - |
| 1777654188 | 8.33° C | 60% | 1016.1 hPa | 0.25 mm | - | - | - |
| 1777653888 | 8.33° C | 62% | 1016.1 hPa | 0.25 mm | - | - | - |
| 1777653588 | 7.78° C | 60% | 1016.2 hPa | 0.25 mm | - | - | - |
| 1777653288 | 7.78° C | 62% | 1016.2 hPa | 0.25 mm | - | - | - |
| 1777652988 | 7.22° C | 60% | 1016.2 hPa | 0.51 mm | - | - | - |
| 1777652688 | 7.78° C | 61% | 1016.1 hPa | 0.51 mm | - | - | - |
| 1777652388 | 7.22° C | 61% | 1016.1 hPa | 0.51 mm | - | - | - |
| 1777652088 | 7.22° C | 60% | 1016 hPa | 0.25 mm | - | - | - |
| 1777651788 | 7.22° C | 62% | 1016 hPa | 0.25 mm | - | - | - |
| 1777651488 | 7.78° C | 62% | 1016 hPa | 0.25 mm | - | - | - |
| 1777651188 | 7.78° C | 64% | 1016.1 hPa | 0.25 mm | - | - | - |
| 1777650888 | 7.78° C | 62% | 1016.1 hPa | 0.25 mm | - | - | - |
| 1777650588 | 7.78° C | 61% | 1016.1 hPa | 0.25 mm | - | - | - |
| 1777650288 | 7.78° C | 62% | 1016.1 hPa | 0.25 mm | - | - | - |
* Rain latest hour (hover to see other rain measurements)
** Current wind speed in m/s (hover to see current wind gust speed)